Location: Strawberry
(45.6646°N, 111.9596°W)
Time: 17:14:04
(UTC+00:00)

SR - Pass Details

Date: 04 October 2022
Orbit: 577 x 874 km, 66.7° (Epoch: 05 December)

Event Time Altitude Azimuth Distance (km) Brightness Sun altitude
Rises 11:00:05 0° 331° (NNW) 3,388 ? -26.5°
Reaches altitude 10° 11:03:12 10° 347° (NNW) 2,406 ? -26.0°
Maximum altitude 11:07:25 22° 36° (NE) 1,663 ? -25.3°
Drops below altitude 10° 11:11:23 10° 87° (E) 2,250 ? -24.7°
Sets 11:14:10 0° 103° (ESE) 3,111 ? -24.2°
